NOAA 17 DEB, 48166

Orbit data source: Space-Track

NOAA 17 DEB, 48166 is space debris in SSO originally from a launch on Mon, 24 Jun 2002 UTC launched from the Air Force Western Test Range (AFWTR). Debris objects in space refer to the collection of defunct objects orbiting the Earth. Examples of debris include non-operational satellites, rocket bodies, and fragments generated from explosions, collisions, or faulty payload assembly.

Loading next visibility...
Identifier
48166, 2002-032G
Orbit
SSO
Country
Flag of USUS
Related business
Manufacturer
Unknown
Mission
Spacecraft
Bus & Motor
Unknown
Mass
Unknown
Launch date (UTC)
2002-06-24 (23 years ago)
Launch vehicle
Unknown
Launch site
Air Force Western Test Range (AFWTR)
Object type
Payload
Rocket body
Debris
Shape & HBR
Unknown shape, 0.1 m
Radar Cross Section
Small (<0.1 m²)

Expand to show TLE details & history
Last TLE update: 12 hours ago

TLE from 12 hours ago
0 NOAA 17 DEB
1 48166U 02032G   25349.90250179  .00009942  00000-0  19951-2 0  9999
2 48166  98.7895 347.0045 0012764  14.4718 345.6844 14.61854318249742
Epoch: 2025-12-15T21:39Z
TLE epoch observation values (Epoch: 2025-12-15T21:39:36.154Z)
Latitude
-0.00007°
Longitude
-62.69053°
Altitude
681.423 km
Speed
7.521 km/s
True Right ascension
23h 08m 01s
True Declination
0° 00' 00"
Sunlit
Object was in daylight at epoch
Visualization orbit readout
Latitude
Unknown
Longitude
Unknown
Altitude
Unknown
Speed
Unknown
Apparent Right ascension
Unknown
Apparent Declination
Unknown
Sunlit
N/A
Visualization observer readout
Local Sidereal Time
08:21:19
Azimuth
Unknown
Elevation
Unknown
Doppler factor
Unknown
Orbital elements
Apogee altitude
693.314 km
Perigee altitude
675.285 km
Semi-major axis
7,062.437 km
Eccentricity
0.00128
Inclination
98.7895°
RAAN
347.0045°
Arg. of periapsis
14.4718°
True anomaly
345.64818°
Mean anomaly
345.6844°
Eccentric anomaly
345.66629°
Mean motion
3.65689 °/min
Orbital period
98.44 mins
BSTAR
0.0019951
Loading maneuver chart data...
Computing Atmospheric mass density...
Loading historical data...
Loading historical data...
Loading historical data...
Loading historical data...
Loading historical data...
Loading historical data...
Loading historical data...

Documentation

Showing up to 5 results
|